Regional Weather Roundup
Issued by NWS Binghamton, NY

Home | Current Version | Previous Version | Text Only | Print | Product List | Glossary On
Versions: 1 2 3 4 5 6 7 8 9 10 11 12 13 14 15 16 17 18 19 20 21 22 23 24 25 26 27 28 29 30 31 32 33 34 35 36 37 38 39 40 41 42 43 44 45 46 47 48 49 50
000
ASUS41 KBGM 280310
RWRBGM
RWRBGM
BINGHAMTON REGIONAL WEATHER ROUNDUP
NATIONAL WEATHER SERVICE BINGHAMTON NY
1100 PM EDT WED AUG 27 2014

Note: "fair" indicates few or no clouds below 12,000 feet with no
significant weather and/or obstructions to visibility.

* = Station(s) that does not report precipitation, such as rain,
snow, etc, also no thunder or fog.

!NYZ009-015>018-022>025-036-037-044>046-055>057-062-280400
...CENTRAL NEW YORK...

CITY           SKY/WX    TMP DP  RH WIND       PRES   REMARKS
BINGHAMTON     MOCLDY    61  56  83 CALM      30.03S
CORTLAND       FAIR      59  57  94 CALM      30.05S
DANSVILLE      MOCLDY    62  58  86 N3        30.06S
ELMIRA         CLEAR     66  58  75 E7        30.03R
ITHACA         CLEAR     60  57  89 NW3       30.05R
HAMILTON       PTCLDY    61  55  82 CALM      30.02S
MONTICELLO     PTCLDY    68  64  88 NW3       29.99S
NORWICH        CLEAR     59  55  88 CALM      30.02S
ONEONTA        CLEAR     61  52  72 NW3       30.03S
PENN YAN       CLEAR     63  56  78 CALM      30.05R
ROME           PTCLDY    63  59  87 CALM      30.00S
SIDNEY         PTCLDY    63  59  88 NW3       30.02R
SYRACUSE       PTCLDY    64  59  83 W7        30.00S
$$

!PAZ038>040-043-044-047-048-072-280400
...NORTHEAST PENNSYLVANIA...

CITY           SKY/WX    TMP DP  RH WIND       PRES   REMARKS
HAZLETON       CLOUDY    70  68  94 N5        30.02F
SCRANTON       MOCLDY    74  63  68 N7        29.98R
TOWANDA*       PTCLDY    70  61  73 NE7       30.03R
$$
&&
KEY
WCI = WIND CHILL INDEX
VSB = VISIBILITY
HX  = HEAT INDEX
$$


USA.gov is the U.S. government's official web portal to all federal, state and local government web resources and services.